Home > Weather > Porto > Past weeks

Flag for Portugal Weather for the Past 2 Weeks in Porto, Portugal

Now
46 °F

Clear.


Feels Like: 46 °F
Forecast: 47 / 65 °F
Wind: 2 mph from North

Location: Porto / Pedras Rubras

Current Time: Apr 29, 2016 at 5:56:04 AM

Latest Report: Apr 29, 2016 at 5:00 AM


Visibility: 10 mi

Pressure: 29.95 "Hg

Humidity: 87%

Dew Point: 43 °F

Location of PortoLocation

Historic Weather in Porto — Graph

°F

Porto Temperature Yesterday

Maximum temperature yesterday: 63 °F (at 1:00 PM)
Minimum temperature yesterday: 46 °F (at 7:00 AM)
Average temperature yesterday: 57 °F

High & Low Weather Summary for the Past Weeks

 TemperatureHumidityPressure
High70 °F (Apr 19, 3:00 PM)100% (Apr 14, 7:00 AM)30.15 "Hg (Apr 14, 7:00 AM)
Low45 °F (Apr 18, 2:30 AM)46% (Apr 25, 12:00 PM)29.65 "Hg (Apr 16, 6:30 AM)
Average58 °F82%29.94 "Hg
* Reported Apr 14 5:00 AM — Apr 29 5:00 AM, Porto, Weather by CustomWeather, © 2016

Note: Actual official high and low records may vary slightly from our data, if they occured in-between our weather recording intervals... More about our weather records

Advertising

Porto Weather History for the Previous 24 Hours

Scroll right to see more
 ConditionsComfort  
Time TempWeatherWind HumidityBarometerVisibility
5:00 AM
Fri, Apr 29
46 °FClear.2 mph87%29.95 "Hg10 mi
4:30 AM48 °FClear.2 mph87%29.95 "Hg10 mi
3:30 AM46 °FClear.2 mph93%29.95 "Hg10 mi
3:00 AM48 °FClear.No wind87%29.95 "Hg10 mi
2:30 AM48 °FClear.No wind87%29.95 "Hg10 mi
2:00 AM50 °FClear.3 mph82%29.95 "Hg10 mi
1:30 AM48 °FClear.No wind87%29.98 "Hg10 mi
1:00 AM50 °FClear.2 mph88%29.98 "Hg10 mi
12:30 AM54 °FClear.5 mph77%29.98 "Hg10 mi
12:00 AM54 °FClear.3 mph82%29.98 "Hg10 mi
11:30 PM
Thu, Apr 28
52 °FClear.3 mph94%29.98 "Hg10 mi
11:00 PM52 °FClear.No wind94%29.98 "Hg10 mi
10:30 PM52 °FClear.2 mph88%29.98 "Hg10 mi
10:00 PM55 °FClear.1 mph82%29.98 "Hg10 mi
9:30 PM54 °FClear.1 mph77%29.95 "Hg10 mi
9:00 PM55 °FSunny.3 mph77%29.95 "Hg10 mi
8:30 PM59 °FSunny.2 mph72%29.95 "Hg10 mi
8:00 PM61 °FSunny.7 mph59%29.95 "Hg10 mi
7:30 PM63 °FPassing clouds.8 mph59%29.95 "HgN/A
7:00 PM63 °FPassing clouds.10 mph56%29.95 "HgN/A
6:30 PM63 °FPassing clouds.13 mph49%29.95 "HgN/A
6:00 PM63 °FSunny.15 mph52%29.95 "Hg10 mi
5:30 PM63 °FSunny.13 mph56%29.95 "Hg10 mi
5:00 PM63 °FPassing clouds.12 mph56%29.95 "HgN/A
4:30 PM63 °FPassing clouds.16 mph59%29.95 "HgN/A
4:00 PM63 °FPassing clouds.14 mph59%29.95 "HgN/A
3:30 PM63 °FPassing clouds.12 mph56%29.95 "HgN/A
3:00 PM63 °FPassing clouds.14 mph56%29.95 "HgN/A
2:30 PM63 °FPassing clouds.12 mph59%29.95 "HgN/A
2:00 PM63 °FPassing clouds.13 mph64%29.95 "HgN/A
1:30 PM61 °FPassing clouds.12 mph68%29.95 "HgN/A
1:00 PM63 °FPassing clouds.10 mph73%29.95 "HgN/A
12:30 PM61 °FPassing clouds.9 mph72%29.95 "HgN/A
12:00 PM61 °FPassing clouds.8 mph68%29.95 "HgN/A
11:30 AM61 °FPassing clouds.7 mph72%29.95 "HgN/A
11:00 AM61 °FPassing clouds.6 mph72%29.95 "HgN/A
10:30 AM59 °FPassing clouds.6 mph72%29.95 "HgN/A
10:00 AM61 °FPassing clouds.3 mph72%29.95 "HgN/A
9:30 AM57 °FPassing clouds.5 mph77%29.95 "HgN/A
8:30 AM54 °FSunny.1 mph94%29.95 "Hg10 mi
7:00 AM46 °FPassing clouds.3 mph100%29.92 "HgN/A
6:00 AM48 °FClear.No wind94%29.92 "Hg10 mi
5:00 AM50 °FPassing clouds.5 mph88%29.92 "HgN/A
Weather by CustomWeather, © 2016

See weather overviewHow to use our weather pages